Home > Weather > Germany > Wolfsburg > Past weeks

Flag for Germany Weather past 2 weeks in Wolfsburg, Lower Saxony, Germany

45 °F

Partly sunny.

Feels Like: 40 °F
Forecast: 45 / 51 °F
Wind: 8 mph from West

Location: Braunschweig

Current Time: Dec 1, 2015 at 4:37:53 PM

Latest Report: Dec 1, 2015 at 3:50 PM

Visibility: N/A

Pressure: 30.18 "Hg

Humidity: 81%

Dew point: 39 °F

Location of WolfsburgLocation

Historic Weather in Wolfsburg — Graph


Wolfsburg temperature yesterday

Maximum temperature yesterday: 50 °F (at 9:20 PM)
Minimum temperature yesterday: 39 °F (at 4:20 PM)
Average temperature yesterday: 43 °F

Past Weeks' High & Low Weather Summary

High57 °F (Nov 17, 1:20 PM)100% (Nov 17, 6:50 AM)30.21 "Hg (Nov 17, 6:50 AM)
Low32 °F (Nov 22, 4:50 PM)59% (Nov 18, 8:20 PM)29.36 "Hg (Nov 21, 7:50 AM)
Average44 °F85%29.80 "Hg
* Reported Nov 16 3:20 PM — Dec 1 3:20 PM, Wolfsburg, Weather by CustomWeather, © 2015

Note: Actual official high and low records may vary slightly from our data, if they occured in-between our weather recording intervals... More about our weather records


Wolfsburg weather history for previous 24 hours

Time TempWeatherWind HumidityBarometerVisibility
3:20 PM
Tue, Dec 1
46 °FPartly sunny.9 mph76%30.18 "HgN/A
2:50 PM46 °FPartly sunny.9 mph76%30.18 "HgN/A
2:20 PM46 °FSunny.12 mph76%30.18 "Hg10 mi
1:50 PM46 °FPassing clouds.10 mph76%30.18 "HgN/A
1:20 PM46 °FSunny.9 mph76%30.15 "Hg10 mi
12:50 PM46 °FSunny.12 mph76%30.15 "Hg10 mi
12:20 PM45 °FSunny.10 mph81%30.15 "Hg10 mi
11:50 AM45 °FSunny.10 mph81%30.15 "Hg10 mi
11:20 AM45 °FSunny.10 mph81%30.15 "Hg10 mi
10:50 AM45 °FSunny.12 mph81%30.12 "Hg10 mi
10:20 AM45 °FScattered clouds.12 mph81%30.12 "HgN/A
9:50 AM45 °FPassing clouds.9 mph81%30.12 "HgN/A
8:50 AM43 °FSunny.10 mph87%30.09 "Hg10 mi
8:20 AM43 °FScattered clouds.12 mph87%30.07 "HgN/A
7:50 AM43 °FPartly cloudy.12 mph87%30.07 "HgN/A
6:50 AM43 °FPassing clouds.10 mph87%30.04 "HgN/A
9:50 PM
Mon, Nov 30
50 °FMostly cloudy.16 mph88%29.68 "HgN/A
9:20 PM50 °FLight rain. Mostly cloudy.16 mph88%29.68 "HgN/A
8:50 PM48 °FRain. Overcast.16 mph94%29.68 "Hg6 mi
8:20 PM46 °FRain. Mostly cloudy.16 mph100%29.68 "Hg6 mi
7:50 PM45 °FRain. Overcast.15 mph100%29.71 "Hg5 mi
7:20 PM43 °FRain. Mostly cloudy.13 mph100%29.71 "Hg5 mi
6:50 PM41 °FRain. Mostly cloudy.10 mph93%29.74 "Hg5 mi
6:20 PM39 °FRain. Mostly cloudy.8 mph93%29.77 "Hg6 mi
5:50 PM39 °FRain. Mostly cloudy.6 mph93%29.80 "Hg5 mi
5:20 PM39 °FRain. Mostly cloudy.3 mph93%29.80 "Hg6 mi
4:50 PM39 °FLight rain. Mostly cloudy.5 mph87%29.83 "Hg5 mi
4:20 PM39 °FLight rain. Mostly cloudy.9 mph87%29.86 "Hg6 mi
Weather by CustomWeather, © 2015

See weather overviewHow to use our weather pages